MDT,Max TemperatureF,Mean TemperatureF,Min TemperatureF,Max Dew PointF,MeanDew PointF,Min DewpointF,Max Humidity, Mean Humidity, Min Humidity, Max Sea Level PressureIn, Mean Sea Level PressureIn, Min Sea Level PressureIn, Max VisibilityMiles, Mean VisibilityMiles, Min VisibilityMiles, Max Wind SpeedMPH, Mean Wind SpeedMPH, Max Gust SpeedMPH,PrecipitationIn, CloudCover, Events, WindDirDegrees
2012-9-1,97,88,78,77,75,72,89,71,43,29.96,29.85,29.77,19,10,2,15,4,,0.00,5,,340
2012-9-2,96,87,78,75,73,68,89,62,43,29.96,29.88,29.80,19,10,2,12,5,,0.00,7,,203
2012-9-3,96,86,77,77,71,37,89,64,23,29.99,29.92,29.85,19,9,2,18,9,,0.02,6,Rain-Thunderstorm,141
2012-9-4,94,86,78,77,72,68,89,67,38,30.05,29.96,29.88,19,11,2,9,2,,0.51,5,Thunderstorm,178
2012-9-5,96,86,77,77,72,66,83,61,37,30.01,29.93,29.83,19,11,2,13,5,,0.00,5,,255
2012-9-6,99,88,78,76,71,66,83,58,38,30.02,29.92,29.83,19,10,2,12,7,,0.00,4,,200
2012-9-7,98,87,76,75,67,52,84,55,21,30.02,29.91,29.81,19,12,2,12,7,,0.00,0,,181
2012-9-8,99,88,76,74,69,57,89,55,19,29.93,29.83,29.75,19,12,2,10,6,,0.00,0,,235
2012-9-9,97,86,75,77,73,68,89,72,39,29.93,29.85,29.80,19,10,0,29,6,,0.00,4,Rain-Thunderstorm,256
2012-9-10,95,86,78,77,74,70,89,74,49,29.96,29.89,29.82,19,9,2,18,5,,0.39,6,Rain-Thunderstorm,164
2012-9-11,97,86,76,76,72,68,94,63,42,29.97,29.89,29.82,19,10,2,9,4,,0.00,2,,202
2012-9-12,98,88,78,77,73,69,89,62,32,29.95,29.88,29.79,19,10,2,12,5,,0.00,2,,259
2012-9-13,97,88,78,77,73,68,89,66,35,29.99,29.90,29.82,19,10,2,7,4,,0.08,4,,232
2012-9-14,92,85,78,78,74,72,89,69,50,29.98,29.91,29.85,19,10,2,10,3,,0.00,6,,234
2012-9-15,94,86,77,76,73,66,89,68,40,30.04,29.97,29.92,19,11,2,12,3,,0.12,5,Rain-Thunderstorm,299
2012-9-16,97,88,78,76,71,64,94,62,30,30.06,29.99,29.92,19,12,2,10,4,,0.00,2,,281
2012-9-17,97,87,77,75,70,63,83,58,33,30.04,29.93,29.83,19,11,2,14,6,,0.00,0,,308
2012-9-18,98,88,77,77,70,64,83,56,29,30.04,29.90,29.80,19,11,2,12,5,,0.00,0,,336
2012-9-19,99,88,78,78,70,64,89,57,31,29.95,29.88,29.80,19,12,2,14,6,,0.00,0,,265
2012-9-20,100,88,77,76,70,63,83,56,29,29.95,29.86,29.78,19,11,2,14,6,,0.00,0,,259
2012-9-21,99,88,78,76,69,59,94,55,30,29.94,29.83,29.73,19,10,2,15,7,,0.00,2,,199
2012-9-22,102,90,77,75,69,57,89,54,27,29.96,29.85,29.78,19,10,2,14,5,,0.00,1,,172
2012-9-23,100,89,78,76,70,63,89,56,30,30.04,29.91,29.85,19,10,2,13,5,,0.00,3,,177
2012-9-24,97,88,80,73,68,59,83,51,30,29.97,29.90,29.82,19,10,2,14,6,,0.00,5,,234
2012-9-25,97,85,73,76,71,64,89,69,30,29.96,29.87,29.79,19,9,2,12,5,,0.04,7,,185
2012-9-26,94,84,73,74,72,70,89,79,49,29.92,29.83,29.77,16,8,2,13,3,,0.71,7,Rain-Thunderstorm,189
2012-9-27,101,83,72,77,73,68,94,79,48,29.92,29.83,29.75,19,9,0,8,2,,0.12,7,Rain,291
2012-9-28,81,78,75,76,73,70,97,88,78,29.89,29.81,29.74,16,5,1,10,3,,0.51,8,Rain,300
2012-9-29,90,82,73,75,72,68,94,74,52,29.96,29.88,29.80,19,10,2,9,5,,0.00,4,,182
2012-9-30,92,84,76,77,73,70,94,71,45,29.95,29.86,29.78,19,11,2,12,4,,0.00,1,,318